Location: Gazon
(48.1318°N, 1.2708°W)
Time: 02:38:10
(UTC+00:00)

Sich 1 Rocket - Pass Details

Date: 18 September 2020
Orbit: 616 x 653 km, 82.5° (Epoch: 29 October)

Event Time Altitude Azimuth Distance (km) Brightness Sun altitude
Rises 19:20:18 0° 185° (S) 2,914 6.9 -12.3°
Reaches altitude 10° 19:22:31 10° 184° (S) 2,017 6.1 -12.7°
Maximum altitude 19:27:00 81° 97° (E) 655 3.5 -13.4°
Drops below altitude 10° 19:31:34 10° 11° (NNE) 2,056 6.3 -14.1°
Sets 19:33:50 0° 11° (N) 2,976 7.2 -14.5°
